INMARSAT 3-F3

Last updated on Sun Jun 21 2026 00:03:03 GMT+0000 (Coordinated Universal Time)

1 24674U 96070A 26170.82945198 .00000127 00000+0 00000+0 0 9995 2 24674 10.3236 49.6281 0003272 29.1261 167.6670 0.99983665107933
UTC large
Height (km)
Speed (km/s)
/
Latitude / Longitude
Inclination (degrees)
Orbital Period (minutes)
Azimuth
Elevation
Range (km)
Doppler Factor

Next 0 passes for location: London (51.5072 / 0.1276)

No passes found over London.
INMARSAT 3-F3